When you browse on this site, cookies collect data to enhance your experience and personalize the content and advertising you see.
Visit our Privacy Policy to learn more. By continuing to use the site, you agree to this use of cookies and data.
  • în România
  • Lista ţărilor
  • Pe 7 zile
  • Temperatura apei
  • Hartă satelitară
  • Meteo pe hartă
  • Widget-uri
  • user-avatar
    Intrare

    Meteo pe oră la Aylesbury

    Astăzi, 19 Aprilie, Vineri

    Timp Temperatura Precipitaţii Vânt Presiune Umiditate
    00:00 +9°C° 0 mm 3 m/s 762 mmHg 82%
    01:00 +9°C° 0 mm 3 m/s 762 mmHg 85%
    02:00 +9°C° 0 mm 3 m/s 762 mmHg 87%
    03:00 +8°C° 0 mm 3 m/s 762 mmHg 90%
    04:00 +8°C° 0 mm 3 m/s 762 mmHg 91%
    05:00 +8°C° 0 mm 3 m/s 763 mmHg 91%
    06:00 +9°C° 0 mm 3 m/s 763 mmHg 91%
    07:00 +11°C° 0 mm 3 m/s 763 mmHg 86%
    08:00 +13°C° 0 mm 3 m/s 764 mmHg 81%
    09:00 +16°C° 0 mm 3 m/s 764 mmHg 77%
    10:00 +17°C° 0 mm 4 m/s 764 mmHg 72%
    11:00 +19°C° 0 mm 4 m/s 764 mmHg 67%
    12:00 +20°C° 0 mm 4 m/s 764 mmHg 63%
    13:00 +20°C° 0 mm 4 m/s 764 mmHg 61%
    14:00 +20°C° 0 mm 4 m/s 764 mmHg 60%
    15:00 +21°C° 0 mm 3 m/s 764 mmHg 59%
    16:00 +20°C° 0 mm 3 m/s 764 mmHg 64%
    17:00 +19°C° 0 mm 3 m/s 764 mmHg 68%
    18:00 +18°C° 0 mm 2 m/s 764 mmHg 72%
    19:00 +16°C° 0 mm 2 m/s 765 mmHg 76%
    20:00 +14°C° 0 mm 2 m/s 765 mmHg 80%
    21:00 +12°C° 0 mm 2 m/s 766 mmHg 84%
    22:00 +10°C° 0 mm 2 m/s 766 mmHg 86%
    23:00 +10°C° 0 mm 2 m/s 766 mmHg 87%

    Mâine, 20 Aprilie, Sâmbătă

    Timp Temperatura Precipitaţii Vânt Presiune Umiditate
    00:00 +9°C° 0 mm 2 m/s 766 mmHg 89%
    01:00 +8°C° 0 mm 2 m/s 765 mmHg 90%
    02:00 +8°C° 0 mm 3 m/s 765 mmHg 90%
    03:00 +7°C° 0 mm 3 m/s 765 mmHg 91%
    04:00 +8°C° 0 mm 3 m/s 765 mmHg 91%
    05:00 +8°C° 0 mm 3 m/s 765 mmHg 92%
    06:00 +8°C° 0 mm 3 m/s 765 mmHg 92%
    07:00 +10°C° 0 mm 3 m/s 765 mmHg 88%
    08:00 +12°C° 0 mm 3 m/s 765 mmHg 84%
    09:00 +16°C° 0 mm 3 m/s 765 mmHg 79%
    10:00 +17°C° 0 mm 3 m/s 765 mmHg 75%
    11:00 +19°C° 0 mm 3 m/s 765 mmHg 70%
    12:00 +20°C° 0 mm 3 m/s 765 mmHg 65%
    13:00 +21°C° 0 mm 3 m/s 764 mmHg 63%
    14:00 +21°C° 0 mm 3 m/s 764 mmHg 61%
    15:00 +21°C° 0 mm 3 m/s 764 mmHg 59%
    16:00 +20°C° 0 mm 3 m/s 764 mmHg 64%
    17:00 +19°C° 0 mm 2 m/s 763 mmHg 69%
    18:00 +19°C° 0 mm 2 m/s 763 mmHg 75%
    19:00 +17°C° 0 mm 2 m/s 763 mmHg 79%
    20:00 +15°C° 0 mm 2 m/s 763 mmHg 83%
    21:00 +12°C° 0 mm 3 m/s 763 mmHg 86%
    22:00 +12°C° 0 mm 2 m/s 763 mmHg 87%
    23:00 +10°C° 0 mm 2 m/s 763 mmHg 87%

    Poimâine, 21 Aprilie, Duminică

    Timp Temperatura Precipitaţii Vânt Presiune Umiditate
    00:00 +10°C° 0 mm 2 m/s 762 mmHg 88%
    01:00 +9°C° 0 mm 2 m/s 762 mmHg 88%
    02:00 +8°C° 0 mm 2 m/s 761 mmHg 88%
    03:00 +8°C° 0 mm 2 m/s 761 mmHg 87%
    04:00 +8°C° 0 mm 2 m/s 760 mmHg 88%
    05:00 +8°C° 0 mm 2 m/s 760 mmHg 88%
    06:00 +8°C° 0 mm 2 m/s 760 mmHg 88%
    07:00 +10°C° 0 mm 2 m/s 759 mmHg 83%
    08:00 +13°C° 0 mm 2 m/s 759 mmHg 78%
    09:00 +16°C° 0 mm 2 m/s 759 mmHg 73%
    10:00 +17°C° 0 mm 2 m/s 758 mmHg 68%
    11:00 +19°C° 0 mm 2 m/s 758 mmHg 63%
    12:00 +20°C° 0 mm 2 m/s 757 mmHg 57%
    13:00 +20°C° 0 mm 2 m/s 757 mmHg 55%
    14:00 +21°C° 0 mm 2 m/s 756 mmHg 53%
    15:00 +21°C° 0 mm 2 m/s 755 mmHg 51%
    16:00 +20°C° 0 mm 2 m/s 755 mmHg 57%
    17:00 +19°C° 0 mm 2 m/s 754 mmHg 63%
    18:00 +18°C° 0 mm 2 m/s 754 mmHg 68%
    19:00 +16°C° 0 mm 2 m/s 754 mmHg 72%
    20:00 +14°C° 0 mm 2 m/s 754 mmHg 76%
    21:00 +12°C° 0 mm 3 m/s 753 mmHg 81%
    22:00 +12°C° 0 mm 2 m/s 753 mmHg 84%
    23:00 +12°C° 0 mm 2 m/s 753 mmHg 87%

    22 Aprilie, Luni

    Timp Temperatura Precipitaţii Vânt Presiune Umiditate
    00:00 +10°C° 0 mm 2 m/s 752 mmHg 90%
    01:00 +10°C° 0 mm 2 m/s 752 mmHg 90%
    02:00 +9°C° 0 mm 2 m/s 751 mmHg 90%
    03:00 +9°C° 0 mm 2 m/s 750 mmHg 90%
    04:00 +9°C° 0 mm 2 m/s 750 mmHg 90%
    05:00 +9°C° 0 mm 2 m/s 750 mmHg 89%
    06:00 +9°C° 0 mm 2 m/s 749 mmHg 89%
    07:00 +13°C° 0 mm 2 m/s 749 mmHg 83%
    08:00 +15°C° 0 mm 2 m/s 749 mmHg 77%
    09:00 +17°C° 0 mm 3 m/s 749 mmHg 71%
    10:00 +18°C° 0 mm 3 m/s 749 mmHg 66%
    11:00 +19°C° 0 mm 3 m/s 748 mmHg 61%
    12:00 +20°C° 0 mm 4 m/s 748 mmHg 56%
    13:00 +21°C° 0 mm 4 m/s 747 mmHg 56%
    14:00 +21°C° 0 mm 4 m/s 747 mmHg 56%
    15:00 +21°C° 0 mm 4 m/s 746 mmHg 57%
    16:00 +20°C° 0 mm 4 m/s 746 mmHg 62%
    17:00 +18°C° 0 mm 4 m/s 746 mmHg 68%
    18:00 +17°C° 0 mm 4 m/s 745 mmHg 73%
    19:00 +14°C° 0 mm 4 m/s 745 mmHg 76%
    20:00 +13°C° 0 mm 3 m/s 745 mmHg 78%
    21:00 +11°C° 0 mm 3 m/s 745 mmHg 81%
    22:00 +10°C° 0 mm 3 m/s 745 mmHg 82%
    23:00 +10°C° 0 mm 3 m/s 744 mmHg 83%

    23 Aprilie, Marţi

    Timp Temperatura Precipitaţii Vânt Presiune Umiditate
    00:00 +9°C° 0 mm 3 m/s 744 mmHg 84%
    01:00 +9°C° 0 mm 3 m/s 744 mmHg 84%
    02:00 +9°C° 0 mm 3 m/s 743 mmHg 84%
    03:00 +9°C° 0 mm 3 m/s 743 mmHg 84%
    04:00 +10°C° 0.3 mm 3 m/s 743 mmHg 85%
    05:00 +10°C° 0.3 mm 3 m/s 743 mmHg 86%
    06:00 +11°C° 0.3 mm 4 m/s 743 mmHg 87%
    07:00 +12°C° 0.2 mm 4 m/s 743 mmHg 84%
    08:00 +14°C° 0.2 mm 4 m/s 743 mmHg 81%
    09:00 +17°C° 0.2 mm 4 m/s 743 mmHg 79%
    10:00 +17°C° 0.6 mm 5 m/s 743 mmHg 76%
    11:00 +17°C° 0.6 mm 5 m/s 743 mmHg 74%
    12:00 +19°C° 0.6 mm 5 m/s 743 mmHg 71%
    13:00 +19°C° 0.8 mm 5 m/s 742 mmHg 71%
    14:00 +19°C° 0.8 mm 5 m/s 742 mmHg 71%
    15:00 +19°C° 0.8 mm 4 m/s 742 mmHg 71%
    16:00 +19°C° 0.4 mm 4 m/s 742 mmHg 74%
    17:00 +18°C° 0.4 mm 3 m/s 742 mmHg 77%
    18:00 +17°C° 0.4 mm 3 m/s 742 mmHg 80%
    19:00 +16°C° 0 mm 3 m/s 743 mmHg 82%
    20:00 +13°C° 0 mm 3 m/s 743 mmHg 85%
    21:00 +12°C° 0 mm 3 m/s 743 mmHg 88%
    22:00 +11°C° 0 mm 3 m/s 743 mmHg 89%
    23:00 +11°C° 0 mm 3 m/s 743 mmHg 90%

    24 Aprilie, Miercuri

    Timp Temperatura Precipitaţii Vânt Presiune Umiditate
    00:00 +11°C° 0 mm 3 m/s 743 mmHg 90%
    01:00 +11°C° 0 mm 3 m/s 743 mmHg 91%
    02:00 +11°C° 0 mm 3 m/s 743 mmHg 91%
    03:00 +11°C° 0 mm 3 m/s 743 mmHg 91%
    04:00 +11°C° 0.1 mm 3 m/s 743 mmHg 92%
    05:00 +11°C° 0.1 mm 3 m/s 743 mmHg 93%
    06:00 +11°C° 0.1 mm 3 m/s 744 mmHg 94%
    07:00 +12°C° 0.1 mm 3 m/s 744 mmHg 93%
    08:00 +14°C° 0.1 mm 2 m/s 744 mmHg 91%
    09:00 +15°C° 0.1 mm 2 m/s 745 mmHg 89%
    10:00 +16°C° 0.1 mm 3 m/s 745 mmHg 85%
    11:00 +17°C° 0.1 mm 4 m/s 745 mmHg 80%
    12:00 +17°C° 0.1 mm 5 m/s 745 mmHg 76%
    13:00 +17°C° 0.1 mm 5 m/s 745 mmHg 75%
    14:00 +17°C° 0.1 mm 5 m/s 745 mmHg 74%
    15:00 +17°C° 0.1 mm 5 m/s 745 mmHg 74%
    16:00 +17°C° 0.4 mm 4 m/s 745 mmHg 79%
    17:00 +15°C° 0.4 mm 4 m/s 746 mmHg 85%
    18:00 +13°C° 0.4 mm 3 m/s 746 mmHg 90%
    19:00 +13°C° 0.1 mm 3 m/s 746 mmHg 91%
    20:00 +12°C° 0.1 mm 3 m/s 746 mmHg 93%
    21:00 +12°C° 0.1 mm 3 m/s 746 mmHg 94%
    22:00 +12°C° 0.1 mm 2 m/s 747 mmHg 95%
    23:00 +12°C° 0.1 mm 2 m/s 747 mmHg 95%
    Arată mai mult